Location: Reeth
(54.3881°N, 1.9432°W)
Time: 22:49:39
(UTC+00:00)

ISS - Visible Passes

Search period start: 25 January 2021 00:00
Search period end: 04 February 2021 00:00
Orbit: 418 x 421 km, 51.6° (Epoch: 26 January)

Date Brightness Start Highest point End Pass type
(mag) Time Alt. Az. Time Alt. Az. Time Alt. Az.
25 Jan -3.2 18:33:06 10° WSW 18:36:22 45° SSE 18:37:00 40° SE visible
25 Jan -0.4 20:09:39 10° W 20:09:58 12° W 20:09:58 12° W visible
26 Jan -2.8 17:45:55 10° SW 17:49:06 39° SSE 17:51:36 15° E visible
26 Jan -2.2 19:22:21 10° W 19:24:35 35° WSW 19:24:35 35° WSW visible
27 Jan -3.3 18:35:03 10° WSW 18:38:22 54° S 18:39:10 41° SE visible
27 Jan -0.4 20:11:45 10° W 20:12:09 13° W 20:12:09 13° W visible
28 Jan -3.2 17:47:46 10° WSW 17:51:04 51° S 17:53:46 14° E visible
28 Jan -2.2 19:24:23 10° W 19:26:44 35° SW 19:26:44 35° SW visible
29 Jan -3.1 18:37:03 10° W 18:40:20 50° S 18:41:21 35° SE visible
29 Jan -0.4 20:13:57 10° W 20:14:20 12° WSW 20:14:20 12° WSW visible
30 Jan -3.2 17:49:41 10° W 17:53:00 53° S 17:56:00 12° ESE visible
30 Jan -2.0 19:26:29 10° W 19:28:59 28° SW 19:28:59 28° SW visible
31 Jan -2.5 18:39:03 10° W 18:42:12 37° SSW 18:43:41 24° SSE visible
01 Feb -2.7 17:51:39 10° W 17:54:53 44° SSW 17:58:08 10° ESE visible
01 Feb -1.4 19:28:48 10° WSW 19:31:10 18° SSW 19:31:26 18° SSW visible
02 Feb -1.6 18:41:11 10° W 18:43:57 23° SSW 18:46:19 12° SSE visible
03 Feb -1.9 17:53:39 10° W 17:56:39 30° SSW 17:59:39 10° SE visible
